OK2ARM-12 Weather Reports


Display with metric or nautical units.
time (UTC)temp
F
wind
direction
speed
MPH
gust
MPH
rain 1hr
in
rain 24hr
in
rain mn
in
humidity
%
barometer
mb
20260508044018 45 0.0 0.0 0.00 0.00 0.00 93 1016.7
20260508043018 45 0.0 0.0 0.00 0.00 0.00 93 1016.6
20260508042018 45 0.0 0.0 0.00 0.00 0.00 93 1016.6
20260508041019 45 0.0 0.0 0.00 0.00 0.00 92 1016.6
20260508040018 45 0.0 0.0 0.00 0.00 0.00 92 1016.5
20260508035018 45 0.0 0.0 0.00 0.00 0.00 91 1016.4
20260508031531 45 0.0 0.0 0.00 0.00 0.00 91 1016.3
20260508030531 45 0.0 0.0 0.00 0.00 0.00 91 1016.1
20260508021821 45 0.0 0.0 0.00 0.00 0.00 90 1016.2
20260508020821 45 0.0 0.0 0.00 0.00 0.00 90 1016.1
20260508015821 45 0.0 0.0 0.00 0.00 0.00 89 1016.1
20260508014821 45 0.0 0.0 0.00 0.00 0.00 89 1016.0
20260508012557 46 0.0 0.0 0.00 0.00 0.00 88 1015.9
20260508011558 46 0.0 0.0 0.00 0.00 0.00 88 1015.8
20260508010557 46 0.0 0.0 0.00 0.00 0.00 88 1015.8
20260508005334 46 0.0 0.0 0.00 0.00 0.00 87 1015.8
20260508004333 46 0.0 0.0 0.00 0.00 0.00 86 1015.7
20260508002109 47 0.0 0.0 0.00 0.00 0.00 85 1015.8
20260508001110 47 0.0 0.0 0.00 0.00 0.00 85 1015.9
20260508000110 47 0.0 0.0 0.00 0.00 0.00 84 1015.9
20260507235110 47 0.0 0.0 0.00 0.00 0.00 84 1015.9
20260507234110 47 0.0 0.0 0.00 0.00 0.00 83 1015.9
20260507233109 48 0.0 0.0 0.00 0.00 0.00 82 1015.9
20260507230846 49 0.0 0.0 0.00 0.00 0.00 80 1015.9
20260507225846 49 0.0 0.0 0.00 0.00 0.00 80 1015.9
20260507224846 50 0.0 0.0 0.00 0.00 0.00 80 1016.0
20260507223846 50 0.0 0.0 0.00 0.00 0.00 79 1015.9
20260507222846 50 0.0 0.0 0.00 0.00 0.00 78 1015.9
20260507221846 51 0.0 0.0 0.00 0.00 0.00 78 1015.8
20260507220847 51 0.0 0.0 0.00 0.00 0.00 77 1015.7
20260507215846 51 0.0 0.0 0.00 0.00 0.00 77 1015.7
20260507213623 51 0.0 0.0 0.00 0.00 0.00 75 1015.7
20260507212622 51 0.0 0.0 0.00 0.00 0.00 75 1015.6
20260507211622 52 0.0 0.0 0.00 0.00 0.00 74 1015.5
20260507210623 52 0.0 0.0 0.00 0.00 0.00 73 1015.5
20260507205622 52 0.0 0.0 0.00 0.00 0.00 73 1015.4
20260507204622 52 0.0 0.0 0.00 0.00 0.00 73 1015.4
20260507203622 52 0.0 0.0 0.00 0.00 0.00 72 1015.2
20260507202622 52 0.0 0.0 0.00 0.00 0.00 71 1015.1
20260507200358 52 0.0 0.0 0.00 0.00 0.00 68 1014.8
20260507195359 53 0.0 0.0 0.00 0.00 0.00 65 1014.6
20260507193133 54 0.0 0.0 0.00 0.00 0.00 60 1014.3
20260507192133 55 0.0 0.0 0.00 0.00 0.00 57 1014.2
20260507191133 55 0.0 0.0 0.00 0.00 0.00 56 1014.1
20260507184909 56 0.0 0.0 0.00 0.00 0.00 54 1013.8
20260507182646 56 0.0 0.0 0.00 0.00 0.00 52 1013.4
20260507181647 57 0.0 0.0 0.00 0.00 0.00 51 1013.1
20260507180645 57 0.0 0.0 0.00 0.00 0.00 51 1013.0
20260507171935 59 0.0 0.0 0.00 0.00 0.00 48 1012.7
20260507170935 58 0.0 0.0 0.00 0.00 0.00 49 1012.7
20260507164711 60 0.0 0.0 0.00 0.00 0.00 49 1012.5
20260507163711 59 0.0 0.0 0.00 0.00 0.00 49 1012.4
20260507162711 60 0.0 0.0 0.00 0.00 0.00 49 1012.4
20260507161712 60 0.0 0.0 0.00 0.00 0.00 51 1012.4
20260507160711 59 0.0 0.0 0.00 0.00 0.00 50 1012.2
20260507155711 60 0.0 0.0 0.00 0.00 0.00 50 1012.3
20260507154711 61 0.0 0.0 0.00 0.00 0.00 48 1012.3
20260507153711 62 0.0 0.0 0.00 0.00 0.00 48 1012.4
20260507152711 60 0.0 0.0 0.00 0.00 0.00 48 1012.3
20260507151711 62 0.0 0.0 0.00 0.00 0.00 44 1012.3
20260507150711 63 0.0 0.0 0.00 0.00 0.00 43 1012.2
20260507145711 61 0.0 0.0 0.00 0.00 0.00 43 1012.2
20260507144711 64 0.0 0.0 0.00 0.00 0.00 44 1012.1
20260507141223 62 0.0 0.0 0.00 0.00 0.00 44 1012.2
20260507140223 62 0.0 0.0 0.00 0.00 0.00 44 1012.2
20260507135222 62 0.0 0.0 0.00 0.00 0.00 45 1012.2
20260507134223 61 0.0 0.0 0.00 0.00 0.00 47 1012.1
20260507133223 62 0.0 0.0 0.00 0.00 0.00 43 1012.1
20260507132222 62 0.0 0.0 0.00 0.00 0.00 44 1012.1
20260507131222 61 0.0 0.0 0.00 0.00 0.00 44 1012.2
20260507130222 62 0.0 0.0 0.00 0.00 0.00 41 1012.2
20260507125222 62 0.0 0.0 0.00 0.00 0.00 43 1012.3
20260507124223 62 0.0 0.0 0.00 0.00 0.00 43 1012.1
20260507123223 61 0.0 0.0 0.00 0.00 0.00 45 1012.2
20260507122222 62 0.0 0.0 0.00 0.00 0.00 42 1012.2
20260507121223 61 0.0 0.0 0.00 0.00 0.00 44 1012.2
20260507120222 61 0.0 0.0 0.00 0.00 0.00 45 1012.3
20260507115222 61 0.0 0.0 0.00 0.00 0.00 46 1012.4
20260507114222 62 0.0 0.0 0.00 0.00 0.00 47 1012.3
20260507113222 61 0.0 0.0 0.00 0.00 0.00 48 1012.4
20260507112223 60 0.0 0.0 0.00 0.00 0.00 51 1012.4
20260507111222 61 0.0 0.0 0.00 0.00 0.00 50 1012.3
20260507110223 61 0.0 0.0 0.00 0.00 0.00 50 1012.3
20260507105222 60 0.0 0.0 0.00 0.00 0.00 52 1012.4
20260507104223 60 0.0 0.0 0.00 0.00 0.00 51 1012.4
20260507101958 59 0.0 0.0 0.00 0.00 0.00 51 1012.4
20260507100959 60 0.0 0.0 0.00 0.00 0.00 53 1012.4
20260507095958 59 0.0 0.0 0.00 0.00 0.00 54 1012.4
20260507094959 59 0.0 0.0 0.00 0.00 0.00 56 1012.3
20260507093959 57 0.0 0.0 0.00 0.00 0.00 57 1012.3
20260507092958 57 0.0 0.0 0.00 0.00 0.00 58 1012.3
20260507091959 57 0.0 0.0 0.00 0.00 0.00 61 1012.2
20260507090959 57 0.0 0.0 0.00 0.00 0.00 63 1012.2
20260507085959 57 0.0 0.0 0.00 0.00 0.00 63 1012.0
20260507084958 56 0.0 0.0 0.00 0.00 0.00 65 1011.9
20260507083958 56 0.0 0.0 0.00 0.00 0.00 65 1012.0
20260507080512 55 0.0 0.0 0.00 0.00 0.00 66 1011.6
20260507075511 56 0.0 0.0 0.00 0.00 0.00 68 1011.7
20260507074511 54 0.0 0.0 0.00 0.00 0.00 70 1011.7
20260507073511 54 0.0 0.0 0.00 0.00 0.00 72 1011.7
20260507072511 53 0.0 0.0 0.00 0.00 0.00 72 1011.6
20260507071511 53 0.0 0.0 0.00 0.00 0.00 74 1011.5
20260507070512 53 0.0 0.0 0.00 0.00 0.00 75 1011.5
20260507065511 53 0.0 0.0 0.00 0.00 0.00 75 1011.5
20260507064511 53 0.0 0.0 0.00 0.00 0.00 75 1011.3
20260507062247 53 0.0 0.0 0.00 0.00 0.00 76 1011.2
20260507061247 53 0.0 0.0 0.00 0.00 0.00 76 1010.9
20260507060247 53 0.0 0.0 0.00 0.00 0.00 77 1010.8
20260507055248 53 0.0 0.0 0.00 0.00 0.00 78 1010.7
20260507054247 52 0.0 0.0 0.00 0.00 0.00 80 1010.7
20260507052024 52 0.0 0.0 0.00 0.00 0.00 85 1010.6
20260507051025 52 0.0 0.0 0.00 0.00 0.00 86 1010.5
20260507044800 51 0.0 0.0 0.00 0.00 0.00 87 1010.1